FW8702 Weather Reports


time (UTC)temp
C
wind
direction
speed
KPH
gust
KPH
rain 1hr
cm
rain 24hr
cm
rain mn
cm
humidity
%
barometer
mb
20260503223024 13 146 0.0 0.0 0.00 0.00 0.00 78 1019.3
20260503221541 13 146 0.0 0.0 0.00 0.00 0.00 78 1019.3
20260503220043 13 146 0.0 0.0 0.00 0.00 0.00 78 1019.1
20260503214507 14 146 0.0 0.0 0.00 0.00 0.00 75 1019.2
20260503213034 14 146 0.0 0.0 0.00 0.00 0.00 74 1019.1
20260503211606 14 146 0.0 0.0 0.00 0.00 0.00 75 1019.1
20260503210105 14 178 0.0 0.0 0.00 0.00 0.00 76 1019.0
20260503204515 14 178 0.0 0.0 0.00 0.00 0.00 76 1019.0
20260503203045 15 178 0.0 1.6 0.00 0.00 0.00 75 1018.9
20260503201510 15 241 0.0 0.0 0.00 0.00 0.00 74 1018.9
20260503200025 15 241 0.0 0.0 0.00 0.00 0.00 73 1018.8
20260503194520 15 241 0.0 0.0 0.00 0.00 0.00 73 1018.6
20260503193030 16 241 0.0 0.0 0.00 0.00 0.00 73 1018.6
20260503191557 16 241 0.0 0.0 0.00 0.00 0.00 71 1018.4
20260503190038 17 241 0.0 0.0 0.00 0.00 0.00 69 1018.1
20260503184624 18 241 0.0 0.0 0.00 0.00 0.00 69 1017.9
20260503183025 18 241 0.0 0.0 0.00 0.00 0.00 66 1017.8
20260503181534 20 241 0.0 0.0 0.00 0.00 0.00 66 1017.9
20260503180047 20 241 0.0 0.0 0.00 0.00 0.00 62 1017.9
20260503174512 21 241 0.0 0.0 0.00 0.00 0.00 58 1017.9
20260503173039 21 241 0.0 0.0 0.00 0.00 0.00 51 1017.9
20260503171502 21 241 0.0 0.0 0.00 0.00 0.00 51 1017.9
20260503081531 18 315 0.0 3.2 0.00 0.00 0.00 64 1020.7
20260503071514 17 290 0.0 0.0 0.00 0.00 0.00 66 1021.1
20260503054539 13 310 0.0 0.0 0.00 0.00 0.00 79 1021.3
20260503053101 13 310 0.0 0.0 0.00 0.00 0.00 80 1021.1
20260503051524 12 307 0.0 0.0 0.00 0.00 0.00 82 1021.0
20260503050105 12 307 0.0 0.0 0.00 0.00 0.00 82 1021.1
20260503044604 12 307 0.0 0.0 0.00 0.00 0.00 82 1021.0
20260503043039 12 307 0.0 0.0 0.00 0.00 0.00 82 1021.1
20260503041538 12 307 0.0 0.0 0.00 0.00 0.00 81 1021.1
20260503040033 12 307 0.0 0.0 0.00 0.00 0.00 80 1021.1
20260503034540 12 357 0.0 1.6 0.00 0.00 0.00 80 1021.1
20260503033002 12 349 0.0 0.0 0.00 0.00 0.00 80 1021.3
20260503031532 12 327 0.0 0.0 0.00 0.00 0.00 82 1021.2
20260503030028 12 297 0.0 0.0 0.00 0.00 0.00 82 1021.2
20260503024537 11 295 0.0 0.0 0.00 0.00 0.00 84 1021.3
20260503023113 11 8 0.0 1.6 0.00 0.00 0.00 84 1021.3
20260503021605 11 3 0.0 0.0 0.00 0.00 0.00 82 1021.3
20260503020015 12 3 0.0 0.0 0.00 0.00 0.00 81 1021.5
20260503014528 12 319 0.0 1.6 0.00 0.00 0.00 82 1021.4
20260503013055 11 307 0.0 0.0 0.00 0.00 0.00 84 1021.5
20260503011522 11 304 0.0 0.0 0.00 0.00 0.00 84 1021.5
20260503010039 11 314 0.0 0.0 0.00 0.00 0.00 84 1021.7
20260503004504 11 208 0.0 0.0 0.00 0.00 0.00 83 1021.9
20260503003030 11 208 0.0 0.0 0.00 0.00 0.00 80 1022.0
20260503001539 11 255 0.0 0.0 0.00 0.00 0.00 80 1022.2
20260503000057 11 259 0.0 0.0 0.00 0.00 0.00 84 1022.4
20260502234534 11 259 0.0 0.0 0.00 0.00 0.00 84 1022.4
20260502233056 11 259 0.0 0.0 0.00 0.00 0.00 84 1022.4
20260502231532 11 259 0.0 0.0 0.00 0.00 0.00 83 1022.5
20260502230100 11 259 0.0 0.0 0.00 0.00 0.00 83 1022.5
20260502224523 11 259 0.0 0.0 0.00 0.00 0.00 82 1022.5